Year,Month,Day,Hour,Minute,Value (Times are PST for temperature in C)
2017,09,23,00,00,12.40
2017,09,23,00,01,12.40
2017,09,23,00,02,12.40
2017,09,23,00,03,12.40
2017,09,23,00,04,12.40
2017,09,23,00,05,12.40
2017,09,23,00,06,12.40
2017,09,23,00,07,12.40
2017,09,23,00,08,12.40
2017,09,23,00,09,12.40
2017,09,23,00,10,12.30
2017,09,23,00,11,12.30
2017,09,23,00,12,12.30
2017,09,23,00,13,12.30
2017,09,23,00,14,12.30
2017,09,23,00,15,12.30
2017,09,23,00,16,12.30
2017,09,23,00,17,12.30
2017,09,23,00,18,12.30
2017,09,23,00,19,12.30
2017,09,23,00,20,12.30
2017,09,23,00,21,12.30
2017,09,23,00,22,12.30
2017,09,23,00,23,12.30
2017,09,23,00,24,12.30
2017,09,23,00,25,12.30
2017,09,23,00,26,12.30
2017,09,23,00,27,12.20
2017,09,23,00,28,12.20
2017,09,23,00,29,12.20
2017,09,23,00,30,12.20
2017,09,23,00,31,12.20
2017,09,23,00,32,12.20
2017,09,23,00,33,12.20
2017,09,23,00,34,12.20
2017,09,23,00,35,12.20
2017,09,23,00,36,12.20
2017,09,23,00,37,12.20
2017,09,23,00,38,12.20
2017,09,23,00,39,12.20
2017,09,23,00,40,12.20
2017,09,23,00,41,12.20
2017,09,23,00,42,12.10
2017,09,23,00,43,12.10
2017,09,23,00,44,12.10
2017,09,23,00,45,12.10
2017,09,23,00,46,12.10
2017,09,23,00,47,12.10
2017,09,23,00,48,12.10
2017,09,23,00,49,12.10
2017,09,23,00,50,12.10
2017,09,23,00,51,12.10
2017,09,23,00,52,12.10
2017,09,23,00,53,12.10
2017,09,23,00,54,12.10
2017,09,23,00,55,12.10
2017,09,23,00,56,12.20
2017,09,23,00,57,12.20
2017,09,23,00,58,12.20
2017,09,23,00,59,12.20
2017,09,23,01,00,12.20
2017,09,23,01,01,12.20
2017,09,23,01,02,12.20
2017,09,23,01,03,12.20
2017,09,23,01,04,12.20
2017,09,23,01,05,12.10
2017,09,23,01,06,12.10
2017,09,23,01,07,12.10
2017,09,23,01,08,12.10
2017,09,23,01,09,12.10
2017,09,23,01,10,12.10
2017,09,23,01,11,12.10
2017,09,23,01,12,12.10
2017,09,23,01,13,12.10
2017,09,23,01,14,12.10
2017,09,23,01,15,12.10
2017,09,23,01,16,12.00
2017,09,23,01,17,12.00
2017,09,23,01,18,12.00
2017,09,23,01,19,12.00
2017,09,23,01,20,12.00
2017,09,23,01,21,12.00
2017,09,23,01,22,12.00
2017,09,23,01,23,11.90
2017,09,23,01,24,11.90
2017,09,23,01,25,11.90
2017,09,23,01,26,11.90
2017,09,23,01,27,11.90
2017,09,23,01,28,11.90
2017,09,23,01,29,11.90
2017,09,23,01,30,11.90
2017,09,23,01,31,12.00
2017,09,23,01,32,12.00
2017,09,23,01,33,12.00
2017,09,23,01,34,12.00
2017,09,23,01,35,12.00
2017,09,23,01,36,12.00
2017,09,23,01,37,12.10
2017,09,23,01,38,12.00
2017,09,23,01,39,12.00
2017,09,23,01,40,12.00
2017,09,23,01,41,12.00
2017,09,23,01,42,11.90
2017,09,23,01,43,11.90
2017,09,23,01,44,11.90
2017,09,23,01,45,11.90
2017,09,23,01,46,11.90
2017,09,23,01,47,11.90
2017,09,23,01,48,11.90
2017,09,23,01,49,11.80
2017,09,23,01,50,11.80
2017,09,23,01,51,11.80
2017,09,23,01,52,11.80
2017,09,23,01,53,11.80
2017,09,23,01,54,11.80
2017,09,23,01,55,11.80
2017,09,23,01,56,11.70
2017,09,23,01,57,11.70
2017,09,23,01,58,11.70
2017,09,23,01,59,11.60
2017,09,23,02,00,11.60
2017,09,23,02,01,11.60
2017,09,23,02,02,11.50
2017,09,23,02,03,11.50
2017,09,23,02,04,11.40
2017,09,23,02,05,11.40
2017,09,23,02,06,11.40
2017,09,23,02,07,11.30
2017,09,23,02,08,11.30
2017,09,23,02,09,11.30
2017,09,23,02,10,11.30
2017,09,23,02,11,11.20
2017,09,23,02,12,11.20
2017,09,23,02,13,11.20
2017,09,23,02,14,11.20
2017,09,23,02,15,11.10
2017,09,23,02,16,11.10
2017,09,23,02,17,11.10
2017,09,23,02,18,11.00
2017,09,23,02,19,11.00
2017,09,23,02,20,10.90
2017,09,23,02,21,10.90
2017,09,23,02,22,10.90
2017,09,23,02,23,10.80
2017,09,23,02,24,10.80
2017,09,23,02,25,10.80
2017,09,23,02,26,10.80
2017,09,23,02,27,10.80
2017,09,23,02,28,10.70
2017,09,23,02,29,10.70
2017,09,23,02,30,10.70
2017,09,23,02,31,10.70
2017,09,23,02,32,10.60
2017,09,23,02,33,10.60
2017,09,23,02,34,10.60
2017,09,23,02,35,10.60
2017,09,23,02,36,10.60
2017,09,23,02,37,10.50
2017,09,23,02,38,10.50
2017,09,23,02,39,10.50
2017,09,23,02,40,10.50
2017,09,23,02,41,10.50
2017,09,23,02,42,10.50
2017,09,23,02,43,10.50
2017,09,23,02,44,10.50
2017,09,23,02,45,10.40
2017,09,23,02,46,10.40
2017,09,23,02,47,10.40
2017,09,23,02,48,10.40
2017,09,23,02,49,10.40
2017,09,23,02,50,10.40
2017,09,23,02,51,10.30
2017,09,23,02,52,10.30
2017,09,23,02,53,10.30
2017,09,23,02,54,10.30
2017,09,23,02,55,10.30
2017,09,23,02,56,10.30
2017,09,23,02,57,10.30
2017,09,23,02,58,10.30
2017,09,23,02,59,10.30
2017,09,23,03,00,10.30
2017,09,23,03,01,10.30
2017,09,23,03,02,10.30
2017,09,23,03,03,10.30
2017,09,23,03,04,10.20
2017,09,23,03,05,10.20
2017,09,23,03,06,10.20
2017,09,23,03,07,10.20
2017,09,23,03,08,10.20
2017,09,23,03,09,10.20
2017,09,23,03,10,10.20
2017,09,23,03,11,10.20
2017,09,23,03,12,10.20
2017,09,23,03,13,10.20
2017,09,23,03,14,10.20
2017,09,23,03,15,10.20
2017,09,23,03,16,10.20
2017,09,23,03,17,10.20
2017,09,23,03,18,10.20
2017,09,23,03,19,10.20
2017,09,23,03,20,10.20
2017,09,23,03,21,10.30
2017,09,23,03,22,10.30
2017,09,23,03,23,10.30
2017,09,23,03,24,10.30
2017,09,23,03,25,10.30
2017,09,23,03,26,10.30
2017,09,23,03,27,10.30
2017,09,23,03,28,10.20
2017,09,23,03,29,10.20
2017,09,23,03,30,10.20
2017,09,23,03,31,10.30
2017,09,23,03,32,10.20
2017,09,23,03,33,10.20
2017,09,23,03,34,10.20
2017,09,23,03,35,10.30
2017,09,23,03,36,10.30
2017,09,23,03,37,10.20
2017,09,23,03,38,10.20
2017,09,23,03,39,10.20
2017,09,23,03,40,10.20
2017,09,23,03,41,10.20
2017,09,23,03,42,10.20
2017,09,23,03,43,10.20
2017,09,23,03,44,10.30
2017,09,23,03,45,10.30
2017,09,23,03,46,10.30
2017,09,23,03,47,10.30
2017,09,23,03,48,10.30
2017,09,23,03,49,10.30
2017,09,23,03,50,10.30
2017,09,23,03,51,10.30
2017,09,23,03,52,10.30
2017,09,23,03,53,10.30
2017,09,23,03,54,10.30
2017,09,23,03,55,10.30
2017,09,23,03,56,10.30
2017,09,23,03,57,10.30
2017,09,23,03,58,10.20
2017,09,23,03,59,10.20
2017,09,23,04,00,10.20
2017,09,23,04,01,10.20
2017,09,23,04,02,10.20
2017,09,23,04,03,10.20
2017,09,23,04,04,10.10
2017,09,23,04,05,10.10
2017,09,23,04,06,10.10
2017,09,23,04,07,10.10
2017,09,23,04,08,10.10
2017,09,23,04,09,10.00
2017,09,23,04,10,10.00
2017,09,23,04,11,10.00
2017,09,23,04,12,9.90
2017,09,23,04,13,9.90
2017,09,23,04,14,9.90
2017,09,23,04,15,9.90
2017,09,23,04,16,9.90
2017,09,23,04,17,9.80
2017,09,23,04,18,9.80
2017,09,23,04,19,9.80
2017,09,23,04,20,9.80
2017,09,23,04,21,9.80
2017,09,23,04,22,9.70
2017,09,23,04,23,9.70
2017,09,23,04,24,9.70
2017,09,23,04,25,9.70
2017,09,23,04,26,9.70
2017,09,23,04,27,9.60
2017,09,23,04,28,9.60
2017,09,23,04,29,9.60
2017,09,23,04,30,9.60
2017,09,23,04,31,9.60
2017,09,23,04,32,9.60
2017,09,23,04,33,9.60
2017,09,23,04,34,9.60
2017,09,23,04,35,9.50
2017,09,23,04,36,9.50
2017,09,23,04,37,9.50
2017,09,23,04,38,9.40
2017,09,23,04,39,9.40
2017,09,23,04,40,9.40
2017,09,23,04,41,9.40
2017,09,23,04,42,9.40
2017,09,23,04,43,9.40
2017,09,23,04,44,9.30
2017,09,23,04,45,9.30
2017,09,23,04,46,9.30
2017,09,23,04,47,9.30
2017,09,23,04,48,9.30
2017,09,23,04,49,9.30
2017,09,23,04,50,9.30
2017,09,23,04,51,9.30
2017,09,23,04,52,9.30
2017,09,23,04,53,9.20
2017,09,23,04,54,9.20
2017,09,23,04,55,9.20
2017,09,23,04,56,9.20
2017,09,23,04,57,9.20
2017,09,23,04,58,9.20
2017,09,23,04,59,9.10
2017,09,23,05,00,9.10
2017,09,23,05,01,9.10
2017,09,23,05,02,9.10
2017,09,23,05,03,9.10
2017,09,23,05,04,9.00
2017,09,23,05,05,9.00
2017,09,23,05,06,9.00
2017,09,23,05,07,9.00
2017,09,23,05,08,9.00
2017,09,23,05,09,8.90
2017,09,23,05,10,8.90
2017,09,23,05,11,8.90
2017,09,23,05,12,8.90
2017,09,23,05,13,8.90
2017,09,23,05,14,8.90
2017,09,23,05,15,8.90
2017,09,23,05,16,8.80
2017,09,23,05,17,8.80
2017,09,23,05,18,8.80
2017,09,23,05,19,8.80
2017,09,23,05,20,8.80
2017,09,23,05,21,8.70
2017,09,23,05,22,8.70
2017,09,23,05,23,8.70
2017,09,23,05,24,8.70
2017,09,23,05,25,8.70
2017,09,23,05,26,8.70
2017,09,23,05,27,8.70
2017,09,23,05,28,8.70
2017,09,23,05,29,8.70
2017,09,23,05,30,8.70
2017,09,23,05,31,8.60
2017,09,23,05,32,8.60
2017,09,23,05,33,8.60
2017,09,23,05,34,8.60
2017,09,23,05,35,8.60
2017,09,23,05,36,8.60
2017,09,23,05,37,8.50
2017,09,23,05,38,8.50
2017,09,23,05,39,8.50
2017,09,23,05,40,8.40
2017,09,23,05,41,8.40
2017,09,23,05,42,8.40
2017,09,23,05,43,8.40
2017,09,23,05,44,8.30
2017,09,23,05,45,8.30
2017,09,23,05,46,8.30
2017,09,23,05,47,8.30
2017,09,23,05,48,8.30
2017,09,23,05,49,8.30
2017,09,23,05,50,8.30
2017,09,23,05,51,8.30
2017,09,23,05,52,8.30
2017,09,23,05,53,8.30
2017,09,23,05,54,8.20
2017,09,23,05,55,8.20
2017,09,23,05,56,8.20
2017,09,23,05,57,8.20
2017,09,23,05,58,8.20
2017,09,23,05,59,8.20
2017,09,23,06,00,8.20
2017,09,23,06,01,8.10
2017,09,23,06,02,8.10
2017,09,23,06,03,8.10
2017,09,23,06,04,8.10
2017,09,23,06,05,8.10
2017,09,23,06,06,8.10
2017,09,23,06,07,8.20
2017,09,23,06,08,8.20
2017,09,23,06,09,8.20
2017,09,23,06,10,8.30
2017,09,23,06,11,8.30
2017,09,23,06,12,8.30
2017,09,23,06,13,8.30
2017,09,23,06,14,8.30
2017,09,23,06,15,8.30
2017,09,23,06,16,8.30
2017,09,23,06,17,8.20
2017,09,23,06,18,8.20
2017,09,23,06,19,8.20
2017,09,23,06,20,8.20
2017,09,23,06,21,8.10
2017,09,23,06,22,8.10
2017,09,23,06,23,8.10
2017,09,23,06,24,8.10
2017,09,23,06,25,8.00
2017,09,23,06,26,8.00
2017,09,23,06,27,8.00
2017,09,23,06,28,8.00
2017,09,23,06,29,7.90
2017,09,23,06,30,7.90
2017,09,23,06,31,7.90
2017,09,23,06,32,7.90
2017,09,23,06,33,7.90
2017,09,23,06,34,7.90
2017,09,23,06,35,7.90
2017,09,23,06,36,7.90
2017,09,23,06,37,7.90
2017,09,23,06,38,7.90
2017,09,23,06,39,7.90
2017,09,23,06,40,7.90
2017,09,23,06,41,7.90
2017,09,23,06,42,7.90
2017,09,23,06,43,7.90
2017,09,23,06,44,7.90
2017,09,23,06,45,7.90
2017,09,23,06,46,7.90
2017,09,23,06,47,7.90
2017,09,23,06,48,7.80
2017,09,23,06,49,7.80
2017,09,23,06,50,7.80
2017,09,23,06,51,7.80
2017,09,23,06,52,7.80
2017,09,23,06,53,7.80
2017,09,23,06,54,7.80
2017,09,23,06,55,7.80
2017,09,23,06,56,7.80
2017,09,23,06,57,7.80
2017,09,23,06,58,7.80
2017,09,23,06,59,7.90
2017,09,23,07,00,7.90
2017,09,23,07,01,7.90
2017,09,23,07,02,7.90
2017,09,23,07,03,7.90
2017,09,23,07,04,7.90
2017,09,23,07,05,7.90
2017,09,23,07,06,7.90
2017,09,23,07,07,7.90
2017,09,23,07,08,7.90
2017,09,23,07,09,7.80
2017,09,23,07,10,7.80
2017,09,23,07,11,7.80
2017,09,23,07,12,7.80
2017,09,23,07,13,7.80
2017,09,23,07,14,7.80
2017,09,23,07,15,7.70
2017,09,23,07,16,7.70
2017,09,23,07,17,7.70
2017,09,23,07,18,7.70
2017,09,23,07,19,7.70
2017,09,23,07,20,7.70
2017,09,23,07,21,7.70
2017,09,23,07,22,7.70
2017,09,23,07,23,7.60
2017,09,23,07,24,7.60
2017,09,23,07,25,7.60
2017,09,23,07,26,7.60
2017,09,23,07,27,7.60
2017,09,23,07,28,7.60
2017,09,23,07,29,7.60
2017,09,23,07,30,7.60
2017,09,23,07,31,7.60
2017,09,23,07,32,7.60
2017,09,23,07,33,7.60
2017,09,23,07,34,7.60
2017,09,23,07,35,7.60
2017,09,23,07,36,7.50
2017,09,23,07,37,7.50
2017,09,23,07,38,7.50
2017,09,23,07,39,7.50
2017,09,23,07,40,7.50
2017,09,23,07,41,7.50
2017,09,23,07,42,7.50
2017,09,23,07,43,7.50
2017,09,23,07,44,7.50
2017,09,23,07,45,7.60
2017,09,23,07,46,7.60
2017,09,23,07,47,7.60
2017,09,23,07,48,7.70
2017,09,23,07,49,7.70
2017,09,23,07,50,7.80
2017,09,23,07,51,7.80
2017,09,23,07,52,7.80
2017,09,23,07,53,7.80
2017,09,23,07,54,7.80
2017,09,23,07,55,7.70
2017,09,23,07,56,7.70
2017,09,23,07,57,7.70
2017,09,23,07,58,7.70
2017,09,23,07,59,7.70
2017,09,23,08,00,7.70
2017,09,23,08,01,7.70
2017,09,23,08,02,7.70
2017,09,23,08,03,7.70
2017,09,23,08,04,7.80
2017,09,23,08,05,7.80
2017,09,23,08,06,7.80
2017,09,23,08,07,7.80
2017,09,23,08,08,7.80
2017,09,23,08,09,7.80
2017,09,23,08,10,7.80
2017,09,23,08,11,7.80
2017,09,23,08,12,7.80
2017,09,23,08,13,7.80
2017,09,23,08,14,7.80
2017,09,23,08,15,7.80
2017,09,23,08,16,7.90
2017,09,23,08,17,7.90
2017,09,23,08,18,7.90
2017,09,23,08,19,7.90
2017,09,23,08,20,8.00
2017,09,23,08,21,8.00
2017,09,23,08,22,8.10
2017,09,23,08,23,8.20
2017,09,23,08,24,8.30
2017,09,23,08,25,8.30
2017,09,23,08,26,8.40
2017,09,23,08,27,8.50
2017,09,23,08,28,8.50
2017,09,23,08,29,8.60
2017,09,23,08,30,8.70
2017,09,23,08,31,8.80
2017,09,23,08,32,8.90
2017,09,23,08,33,9.00
2017,09,23,08,34,9.10
2017,09,23,08,35,9.20
2017,09,23,08,36,9.20
2017,09,23,08,37,9.20
2017,09,23,08,38,9.30
2017,09,23,08,39,9.30
2017,09,23,08,40,9.30
2017,09,23,08,41,9.40
2017,09,23,08,42,9.40
2017,09,23,08,43,9.40
2017,09,23,08,44,9.40
2017,09,23,08,45,9.50
2017,09,23,08,46,9.50
2017,09,23,08,47,9.50
2017,09,23,08,48,9.60
2017,09,23,08,49,9.60
2017,09,23,08,50,9.60
2017,09,23,08,51,9.60
2017,09,23,08,52,9.70
2017,09,23,08,53,9.70
2017,09,23,08,54,9.80
2017,09,23,08,55,9.80
2017,09,23,08,56,9.90
2017,09,23,08,57,10.00
2017,09,23,08,58,10.00
2017,09,23,08,59,10.10
2017,09,23,09,00,10.10
2017,09,23,09,01,10.10
2017,09,23,09,02,10.20
2017,09,23,09,03,10.20
2017,09,23,09,04,10.20
2017,09,23,09,05,10.20
2017,09,23,09,06,10.30
2017,09,23,09,07,10.30
2017,09,23,09,08,10.30
2017,09,23,09,09,10.40
2017,09,23,09,10,10.40
2017,09,23,09,11,10.40
2017,09,23,09,12,10.50
2017,09,23,09,13,10.50
2017,09,23,09,14,10.60
2017,09,23,09,15,10.60
2017,09,23,09,16,10.70
2017,09,23,09,17,10.70
2017,09,23,09,18,10.80
2017,09,23,09,19,10.80
2017,09,23,09,20,10.90
2017,09,23,09,21,10.90
2017,09,23,09,22,11.00
2017,09,23,09,23,11.10
2017,09,23,09,24,11.10
2017,09,23,09,25,11.20
2017,09,23,09,26,11.20
2017,09,23,09,27,11.30
2017,09,23,09,28,11.30
2017,09,23,09,29,11.40
2017,09,23,09,30,11.40
2017,09,23,09,31,11.40
2017,09,23,09,32,11.30
2017,09,23,09,33,11.40
2017,09,23,09,34,11.40
2017,09,23,09,35,11.40
2017,09,23,09,36,11.40
2017,09,23,09,37,11.40
2017,09,23,09,38,11.50
2017,09,23,09,39,11.50
2017,09,23,09,40,11.50
2017,09,23,09,41,11.60
2017,09,23,09,42,11.60
2017,09,23,09,43,11.60
2017,09,23,09,44,11.70
2017,09,23,09,45,11.70
2017,09,23,09,46,11.70
2017,09,23,09,47,11.70
2017,09,23,09,48,11.80
2017,09,23,09,49,11.80
2017,09,23,09,50,11.90
2017,09,23,09,51,11.90
2017,09,23,09,52,11.90
2017,09,23,09,53,12.00
2017,09,23,09,54,12.00
2017,09,23,09,55,12.00
2017,09,23,09,56,12.10
2017,09,23,09,57,12.10
2017,09,23,09,58,12.10
2017,09,23,09,59,12.20
2017,09,23,10,00,12.20
2017,09,23,10,01,12.20
2017,09,23,10,02,12.30
2017,09,23,10,03,12.30
2017,09,23,10,04,12.30
2017,09,23,10,05,12.40
2017,09,23,10,06,12.40
2017,09,23,10,07,12.40
2017,09,23,10,08,12.50
2017,09,23,10,09,12.50
2017,09,23,10,10,12.60
2017,09,23,10,11,12.60
2017,09,23,10,12,12.60
2017,09,23,10,13,12.60
2017,09,23,10,14,12.70
2017,09,23,10,15,12.70
2017,09,23,10,16,12.80
2017,09,23,10,17,12.80
2017,09,23,10,18,12.90
2017,09,23,10,19,12.90
2017,09,23,10,20,13.00
2017,09,23,10,21,13.00
2017,09,23,10,22,13.10
2017,09,23,10,23,13.10
2017,09,23,10,24,13.10
2017,09,23,10,25,13.20
2017,09,23,10,26,13.20
2017,09,23,10,27,13.20
2017,09,23,10,28,13.20
2017,09,23,10,29,13.20
2017,09,23,10,30,13.20
2017,09,23,10,31,13.20
2017,09,23,10,32,13.20
2017,09,23,10,33,13.20
2017,09,23,10,34,13.20
2017,09,23,10,35,13.20
2017,09,23,10,36,13.30
2017,09,23,10,37,13.30
2017,09,23,10,38,13.30
2017,09,23,10,39,13.30
2017,09,23,10,40,13.40
2017,09,23,10,41,13.40
2017,09,23,10,42,13.40
2017,09,23,10,43,13.40
2017,09,23,10,44,13.40
2017,09,23,10,45,13.40
2017,09,23,10,46,13.40
2017,09,23,10,47,13.40
2017,09,23,10,48,13.50
2017,09,23,10,49,13.50
2017,09,23,10,50,13.50
2017,09,23,10,51,13.50
2017,09,23,10,52,13.50
2017,09,23,10,53,13.60
2017,09,23,10,54,13.60
2017,09,23,10,55,13.60
2017,09,23,10,56,13.60
2017,09,23,10,57,13.70
2017,09,23,10,58,13.70
2017,09,23,10,59,13.80
2017,09,23,11,00,13.80
2017,09,23,11,01,13.90
2017,09,23,11,02,13.90
2017,09,23,11,03,14.00
2017,09,23,11,04,14.00
2017,09,23,11,05,14.10
2017,09,23,11,06,14.10
2017,09,23,11,07,14.20
2017,09,23,11,08,14.20
2017,09,23,11,09,14.30
2017,09,23,11,10,14.30
2017,09,23,11,11,14.30
2017,09,23,11,12,14.40
2017,09,23,11,13,14.40
2017,09,23,11,14,14.50
2017,09,23,11,15,14.50
2017,09,23,11,16,14.50
2017,09,23,11,17,14.60
2017,09,23,11,18,14.60
2017,09,23,11,19,14.60
2017,09,23,11,20,14.60
2017,09,23,11,21,14.70
2017,09,23,11,22,14.70
2017,09,23,11,23,14.70
2017,09,23,11,24,14.80
2017,09,23,11,25,14.80
2017,09,23,11,26,14.80
2017,09,23,11,27,14.80
2017,09,23,11,28,14.90
2017,09,23,11,29,14.90
2017,09,23,11,30,15.00
2017,09,23,11,31,15.00
2017,09,23,11,32,15.10
2017,09,23,11,33,15.10
2017,09,23,11,34,15.20
2017,09,23,11,35,15.20
2017,09,23,11,36,15.30
2017,09,23,11,37,15.30
2017,09,23,11,38,15.40
2017,09,23,11,39,15.40
2017,09,23,11,40,15.50
2017,09,23,11,41,15.50
2017,09,23,11,42,15.60
2017,09,23,11,43,15.60
2017,09,23,11,44,15.70
2017,09,23,11,45,15.70
2017,09,23,11,46,15.70
2017,09,23,11,47,15.70
2017,09,23,11,48,15.70
2017,09,23,11,49,15.70
2017,09,23,11,50,15.70
2017,09,23,11,51,15.70
2017,09,23,11,52,15.70
2017,09,23,11,53,15.70
2017,09,23,11,54,15.70
2017,09,23,11,55,15.80
2017,09,23,11,56,15.80
2017,09,23,11,57,15.80
2017,09,23,11,58,15.80
2017,09,23,11,59,15.80
2017,09,23,12,00,15.90
2017,09,23,12,01,15.90
2017,09,23,12,02,15.90
2017,09,23,12,03,15.90
2017,09,23,12,04,15.90
2017,09,23,12,05,15.90
2017,09,23,12,06,15.90
2017,09,23,12,07,16.00
2017,09,23,12,08,16.00
2017,09,23,12,09,16.10
2017,09,23,12,10,16.10
2017,09,23,12,11,16.10
2017,09,23,12,12,16.10
2017,09,23,12,13,16.20
2017,09,23,12,14,16.20
2017,09,23,12,15,16.20
2017,09,23,12,16,16.20
2017,09,23,12,17,16.30
2017,09,23,12,18,16.30
2017,09,23,12,19,16.40
2017,09,23,12,20,16.50
2017,09,23,12,21,16.50
2017,09,23,12,22,16.60
2017,09,23,12,23,16.70
2017,09,23,12,24,16.70
2017,09,23,12,25,16.80
2017,09,23,12,26,16.80
2017,09,23,12,27,16.80
2017,09,23,12,28,16.90
2017,09,23,12,29,16.90
2017,09,23,12,30,16.90
2017,09,23,12,31,16.80
2017,09,23,12,32,16.80
2017,09,23,12,33,16.80
2017,09,23,12,34,16.80
2017,09,23,12,35,16.80
2017,09,23,12,36,16.80
2017,09,23,12,37,16.80
2017,09,23,12,38,16.80
2017,09,23,12,39,16.80
2017,09,23,12,40,16.80
2017,09,23,12,41,16.80
2017,09,23,12,42,16.70
2017,09,23,12,43,16.70
2017,09,23,12,44,16.70
2017,09,23,12,45,16.70
2017,09,23,12,46,16.70
2017,09,23,12,47,16.70
2017,09,23,12,48,16.70
2017,09,23,12,49,16.70
2017,09,23,12,50,16.70
2017,09,23,12,51,16.70
2017,09,23,12,52,16.70
2017,09,23,12,53,16.70
2017,09,23,12,54,16.80
2017,09,23,12,55,16.80
2017,09,23,12,56,16.80
2017,09,23,12,57,16.80
2017,09,23,12,58,16.70
2017,09,23,12,59,16.70
2017,09,23,13,00,16.70
2017,09,23,13,01,16.70
2017,09,23,13,02,16.70
2017,09,23,13,03,16.70
2017,09,23,13,04,16.70
2017,09,23,13,05,16.70
2017,09,23,13,06,16.70
2017,09,23,13,07,16.70
2017,09,23,13,08,16.70
2017,09,23,13,09,16.70
2017,09,23,13,10,16.70
2017,09,23,13,11,16.70
2017,09,23,13,12,16.70
2017,09,23,13,13,16.70
2017,09,23,13,14,16.70
2017,09,23,13,15,16.70
2017,09,23,13,16,16.60
2017,09,23,13,17,16.60
2017,09,23,13,18,16.60
2017,09,23,13,19,16.60
2017,09,23,13,20,16.60
2017,09,23,13,21,16.50
2017,09,23,13,22,16.50
2017,09,23,13,23,16.50
2017,09,23,13,24,16.60
2017,09,23,13,25,16.60
2017,09,23,13,26,16.60
2017,09,23,13,27,16.60
2017,09,23,13,28,16.60
2017,09,23,13,29,16.60
2017,09,23,13,30,16.60
2017,09,23,13,31,16.70
2017,09,23,13,32,16.70
2017,09,23,13,33,16.80
2017,09,23,13,34,16.80
2017,09,23,13,35,16.80
2017,09,23,13,36,16.90
2017,09,23,13,37,16.90
2017,09,23,13,38,16.90
2017,09,23,13,39,16.90
2017,09,23,13,40,16.90
2017,09,23,13,41,16.90
2017,09,23,13,42,16.90
2017,09,23,13,43,16.90
2017,09,23,13,44,16.90
2017,09,23,13,45,16.90
2017,09,23,13,46,16.90
2017,09,23,13,47,16.90
2017,09,23,13,48,16.90
2017,09,23,13,49,16.90
2017,09,23,13,50,16.90
2017,09,23,13,51,16.90
2017,09,23,13,52,16.90
2017,09,23,13,53,16.90
2017,09,23,13,54,17.00
2017,09,23,13,55,17.00
2017,09,23,13,56,17.00
2017,09,23,13,57,17.00
2017,09,23,13,58,17.00
2017,09,23,13,59,17.00
2017,09,23,14,00,17.00
2017,09,23,14,01,17.00
2017,09,23,14,02,17.00
2017,09,23,14,03,17.00
2017,09,23,14,04,17.00
2017,09,23,14,05,17.00
2017,09,23,14,06,17.00
2017,09,23,14,07,17.00
2017,09,23,14,08,17.00
2017,09,23,14,09,17.00
2017,09,23,14,10,17.00
2017,09,23,14,11,17.00
2017,09,23,14,12,17.00
2017,09,23,14,13,17.10
2017,09,23,14,14,17.00
2017,09,23,14,15,17.00
2017,09,23,14,16,17.00
2017,09,23,14,17,17.00
2017,09,23,14,18,17.00
2017,09,23,14,19,17.10
2017,09,23,14,20,17.10
2017,09,23,14,21,17.10
2017,09,23,14,22,17.00
2017,09,23,14,23,17.00
2017,09,23,14,24,17.00
2017,09,23,14,25,16.90
2017,09,23,14,26,17.00
2017,09,23,14,27,17.00
2017,09,23,14,28,17.00
2017,09,23,14,29,17.10
2017,09,23,14,30,17.10
2017,09,23,14,31,17.20
2017,09,23,14,32,17.20
2017,09,23,14,33,17.30
2017,09,23,14,34,17.30
2017,09,23,14,35,17.30
2017,09,23,14,36,17.20
2017,09,23,14,37,17.20
2017,09,23,14,38,17.20
2017,09,23,14,39,17.20
2017,09,23,14,40,17.20
2017,09,23,14,41,17.20
2017,09,23,14,42,17.30
2017,09,23,14,43,17.30
2017,09,23,14,44,17.30
2017,09,23,14,45,17.30
2017,09,23,14,46,17.30
2017,09,23,14,47,17.30
2017,09,23,14,48,17.30
2017,09,23,14,49,17.30
2017,09,23,14,50,17.30
2017,09,23,14,51,17.40
2017,09,23,14,52,17.40
2017,09,23,14,53,17.40
2017,09,23,14,54,17.40
2017,09,23,14,55,17.40
2017,09,23,14,56,17.40
2017,09,23,14,57,17.40
2017,09,23,14,58,17.40
2017,09,23,14,59,17.40
2017,09,23,15,00,17.40
2017,09,23,15,01,17.40
2017,09,23,15,02,17.40
2017,09,23,15,03,17.40
2017,09,23,15,04,17.40
2017,09,23,15,05,17.30
2017,09,23,15,06,17.30
2017,09,23,15,07,17.30
2017,09,23,15,08,17.30
2017,09,23,15,09,17.30
2017,09,23,15,10,17.30
2017,09,23,15,11,17.20
2017,09,23,15,12,17.20
2017,09,23,15,13,17.20
2017,09,23,15,14,17.20
2017,09,23,15,15,17.20
2017,09,23,15,16,17.20
2017,09,23,15,17,17.20
2017,09,23,15,18,17.20
2017,09,23,15,19,17.20
2017,09,23,15,20,17.20
2017,09,23,15,21,17.30
2017,09,23,15,22,17.30
2017,09,23,15,23,17.30
2017,09,23,15,24,17.30
2017,09,23,15,25,17.30
2017,09,23,15,26,17.30
2017,09,23,15,27,17.30
2017,09,23,15,28,17.30
2017,09,23,15,29,17.30
2017,09,23,15,30,17.30
2017,09,23,15,31,17.30
2017,09,23,15,32,17.30
2017,09,23,15,33,17.30
2017,09,23,15,34,17.30
2017,09,23,15,35,17.30
2017,09,23,15,36,17.30
2017,09,23,15,37,17.40
2017,09,23,15,38,17.40
2017,09,23,15,39,17.40
2017,09,23,15,40,17.40
2017,09,23,15,41,17.40
2017,09,23,15,42,17.40
2017,09,23,15,43,17.40
2017,09,23,15,44,17.40
2017,09,23,15,45,17.40
2017,09,23,15,46,17.40
2017,09,23,15,47,17.40
2017,09,23,15,48,17.40
2017,09,23,15,49,17.40
2017,09,23,15,50,17.40
2017,09,23,15,51,17.40
2017,09,23,15,52,17.40
2017,09,23,15,53,17.30
2017,09,23,15,54,17.40
2017,09,23,15,55,17.30
2017,09,23,15,56,17.40
2017,09,23,15,57,17.40
2017,09,23,15,58,17.30
2017,09,23,15,59,17.40
2017,09,23,16,00,17.40
2017,09,23,16,01,17.40
2017,09,23,16,02,17.40
2017,09,23,16,03,17.40
2017,09,23,16,04,17.40
2017,09,23,16,05,17.40
2017,09,23,16,06,17.40
2017,09,23,16,07,17.50
2017,09,23,16,08,17.50
2017,09,23,16,09,17.50
2017,09,23,16,10,17.50
2017,09,23,16,11,17.50
2017,09,23,16,12,17.50
2017,09,23,16,13,17.50
2017,09,23,16,14,17.50
2017,09,23,16,15,17.50
2017,09,23,16,16,17.50
2017,09,23,16,17,17.50
2017,09,23,16,18,17.60
2017,09,23,16,19,17.60
2017,09,23,16,20,17.50
2017,09,23,16,21,17.50
2017,09,23,16,22,17.50
2017,09,23,16,23,17.50
2017,09,23,16,24,17.50
2017,09,23,16,25,17.50
2017,09,23,16,26,17.50
2017,09,23,16,27,17.50
2017,09,23,16,28,17.50
2017,09,23,16,29,17.50
2017,09,23,16,30,17.50
2017,09,23,16,31,17.50
2017,09,23,16,32,17.50
2017,09,23,16,33,17.50
2017,09,23,16,34,17.40
2017,09,23,16,35,17.50
2017,09,23,16,36,17.50
2017,09,23,16,37,17.50
2017,09,23,16,38,17.50
2017,09,23,16,39,17.50
2017,09,23,16,40,17.50
2017,09,23,16,41,17.40
2017,09,23,16,42,17.40
2017,09,23,16,43,17.40
2017,09,23,16,44,17.30
2017,09,23,16,45,17.30
2017,09,23,16,46,17.30
2017,09,23,16,47,17.30
2017,09,23,16,48,17.30
2017,09,23,16,49,17.30
2017,09,23,16,50,17.30
2017,09,23,16,51,17.30
2017,09,23,16,52,17.30
2017,09,23,16,53,17.30
2017,09,23,16,54,17.30
2017,09,23,16,55,17.30
2017,09,23,16,56,17.30
2017,09,23,16,57,17.30
2017,09,23,16,58,17.30
2017,09,23,16,59,17.30
2017,09,23,17,00,17.30
2017,09,23,17,01,17.30
2017,09,23,17,02,17.30
2017,09,23,17,03,17.40
2017,09,23,17,04,17.40
2017,09,23,17,05,17.40
2017,09,23,17,06,17.40
2017,09,23,17,07,17.40
2017,09,23,17,08,17.40
2017,09,23,17,09,17.40
2017,09,23,17,10,17.40
2017,09,23,17,11,17.40
2017,09,23,17,12,17.40
2017,09,23,17,13,17.40
2017,09,23,17,14,17.40
2017,09,23,17,15,17.40
2017,09,23,17,16,17.40
2017,09,23,17,17,17.40
2017,09,23,17,18,17.40
2017,09,23,17,19,17.50
2017,09,23,17,20,17.50
2017,09,23,17,21,17.50
2017,09,23,17,22,17.50
2017,09,23,17,23,17.50
2017,09,23,17,24,17.50
2017,09,23,17,25,17.60
2017,09,23,17,26,17.60
2017,09,23,17,27,17.60
2017,09,23,17,28,17.60
2017,09,23,17,29,17.60
2017,09,23,17,30,17.70
2017,09,23,17,31,17.70